CAPE
0 0 0 0 0 0 0 0 2 2 3 3 2 0 0 0 0 1 0 0 0 0 0 0 0 0 0 0 0 0 0 0 0
0 0 1 0 0 0 0 0 0 2 0 7 0 0 0 0 0 3 0 0 0 0 0 0 0 0 0 0 0 0 0 0 0
0 3 17 5 0 0 0 0 0 2 0 0 0 0 0 0 0 0 0 0 0 0 0 0 0 0 0 0 0 0 0 0 0
10 8 16 16 0 0 0 0 0 0 0 0 0 0 0 0 0 0 0 0 0 0 0 0 0 0 0 0 0 0 0 0 0
3 0 2 0 0 0 0 0 0 0 0 0 0 0 0 0 0 0 0 0 0 0 0 0 0 0 0 0 0 0 0 0 0
0 0 0 0 0 0 0 0 0 0 0 0 0 0 0 0 0 0 0 0 0 0 0 0 0 0 0 0 0 0 0 0 0
0 0 0 0 0 0 0 0 0 0 0 0 0 0 0 0 0 0 0 0 0 0 0 0 0 0 0 0 0 0 0 0 0
0 0 0 0 0 0 0 0 0 0 0 0 0 0 0 0 0 0 0 0 0 0 0 0 0 0 0 0 0 0 0 0 0
0 0 0 0 0 0 0 0 0 0 0 0 0 0 0 0 0 0 0 0 0 0 0 0 0 0 0 0 0 0 0 0 0
0 0 0 0 0 0 0 0 0 0 0 0 0 0 0 0 0 0 0 0 0 0 0 0 0 0 0 0 0 0 0 0 0
0 0 0 0 0 0 0 0 0 0 0 0 0 0 0 0 0 0 0 0 0 0 0 0 0 0 0 0 0 0 0 0 0
0 0 0 0 0 0 0 0 0 0 0 0 0 0 0 0 0 0 0 0 0 0 0 0 0 0 0 0 0 0 0 0 0
0 0 0 0 0 0 0 0 0 0 0 0 0 0 0 0 0 0 0 0 0 0 0 0 0 0 0 0 0 0 0 0 0
0 0 0 0 0 0 0 0 0 0 0 0 0 0 0 0 0 0 0 0 0 0 0 0 0 0 0 0 0 0 0 0 0
0 0 0 0 0 0 0 0 0 0 0 0 0 0 0 0 0 0 0 0 0 0 0 0 0 0 0 0 0 0 0 0 0
0 0 0 0 0 0 0 0 0 0 0 0 0 0 0 0 0 0 0 0 0 0 0 0 0 0 0 0 0 0 0 0 0
0 0 0 0 0 0 0 0 0 0 0 0 0 0 0 0 0 0 0 0 0 0 0 0 0 0 0 0 0 0 0 0 0
0 0 0 0 0 0 0 0 0 0 0 0 1 0 0 0 0 0 0 0 0 0 0 0 0 0 0 0 0 0 0 0 28
0 0 0 0 0 0 0 0 0 0 0 1 1 0 0 0 1 0 0 0 0 0 0 0 0 0 0 0 0 0 0 0 0
0 0 0 0 0 4 3 3 0 0 0 0 3 2 0 0 0 0 0 0 0 0 0 0 0 0 0 0 0 0 0 0 10
CIN
0 0 0 0 0 0 0 0 0 -2 -1 0 0 0 0 0 0 -8 -1 0 0 0 0 0 0 0 0 0 0 0 0 0 0
0 0 -1 0 0 0 0 0 0 0 0 0 0 0 0 0 0 -6 0 0 0 0 0 0 0 0 0 0 0 0 0 0 0
0 -4 -5 -4 0 0 0 0 0 0 0 0 0 0 0 0 0 0 0 0 0 0 0 0 0 0 0 0 0 0 0 0 0
-6 -9 -6 0 0 0 0 0 0 0 0 0 0 0 0 0 0 0 0 0 0 0 0 0 0 0 0 0 0 0 0 0 0
-9 0 -5 0 0 0 0 0 0 0 0 0 0 0 0 0 0 0 0 0 0 0 0 0 0 0 0 0 0 0 0 0 0
0 0 0 0 0 0 0 0 0 0 0 0 0 0 0 0 0 0 0 0 0 0 0 0 0 0 0 0 0 0 0 0 0
0 0 0 0 0 0 0 0 0 0 0 0 0 0 0 0 0 0 0 0 0 0 0 0 0 0 0 0 0 0 0 0 0
0 0 0 0 0 0 0 0 0 0 0 0 0 0 0 0 0 0 0 0 0 0 0 0 0 0 0 0 0 0 0 0 0
0 0 0 0 0 0 0 0 0 0 0 0 0 0 0 0 0 0 0 0 0 0 0 0 0 0 0 0 0 0 0 0 0
0 0 0 0 0 0 0 0 0 0 0 0 0 0 0 0 0 0 0 0 0 0 0 0 0 0 0 0 0 0 0 0 0
0 0 0 0 0 0 0 0 0 0 0 0 0 0 0 0 0 0 0 0 0 0 0 0 0 0 0 0 0 0 0 0 0
0 0 0 0 0 0 0 0 0 0 0 0 0 0 0 0 0 0 0 0 0 0 0 0 0 0 0 0 0 0 0 0 0
0 0 0 0 0 0 0 0 0 0 0 0 0 0 0 0 0 0 0 0 0 0 0 0 0 0 0 0 0 0 0 0 0
0 0 0 0 0 0 0 0 0 0 0 0 0 0 0 0 0 0 0 0 0 0 0 0 0 0 0 0 0 0 0 0 0
0 0 0 0 0 0 0 0 0 0 0 0 0 0 0 0 0 0 0 0 0 0 0 0 0 0 0 0 0 0 0 0 0
0 0 0 0 0 0 0 0 0 0 0 0 0 0 0 0 0 0 0 0 0 0 0 0 0 0 0 0 0 0 0 0 0
0 0 0 0 0 0 0 0 0 0 0 0 0 -1 -1 0 0 0 0 0 0 0 0 0 0 0 0 0 0 0 0 0 -58
0 0 0 0 0 0 0 0 0 0 0 0 -1 -1 -1 0 0 0 0 0 0 0 0 0 0 0 0 0 0 0 0 0 -152
0 0 0 0 0 0 0 0 0 0 0 -16 -9 -3 0 -3 -3 0 0 0 0 0 0 0 0 0 0 0 0 0 0 0 0
0 0 0 0 -1 -3 -4 -2 -4 0 -8 0 -4 -7 -1 0 0 0 0 0 0 0 0 0 0 0 0 0 0 0 0 0 -162
Wind_Speed
16 15 15 16 16 16 16 15 15 15 16 15 15 15 15 16 16 17 18 19 19 20 20 21 22 22 22 22 22 22 21 21 21
14 14 14 14 15 15 15 14 14 14 14 14 14 14 15 15 15 17 17 17 17 18 19 19 20 20 21 20 20 20 21 21 20
13 13 12 12 14 14 14 13 12 13 13 13 13 14 14 15 14 15 15 15 16 16 17 17 18 18 19 19 19 19 19 20 20
13 12 12 12 11 11 11 11 10 9 10 11 11 12 12 13 13 12 13 13 14 15 15 16 17 17 17 18 18 18 18 19 19
10 11 11 11 10 10 10 9 8 8 7 8 8 9 9 9 11 12 11 11 12 13 13 14 15 16 17 17 17 18 19 19 19
5 7 8 9 8 8 8 8 8 8 7 6 6 6 6 6 6 8 8 9 9 10 11 12 13 16 17 17 18 18 18 19 20
5 7 7 7 6 6 6 6 6 6 5 5 4 4 3 3 5 7 6 7 6 7 8 10 11 14 17 18 19 20 20 20 21
8 8 7 6 5 5 5 5 4 4 3 3 3 2 2 1 3 4 3 5 5 5 6 8 9 11 17 20 21 21 22 22 23
8 6 5 6 7 5 4 4 3 2 2 1 1 1 1 3 3 3 2 3 4 5 7 7 9 11 14 20 22 23 24 23 23
9 8 9 9 9 7 7 6 6 4 4 3 4 4 4 4 4 5 5 5 6 6 7 8 9 11 13 16 21 24 24 24 24
11 11 11 11 10 10 10 8 7 7 7 7 7 7 8 8 9 8 9 9 9 9 10 10 11 12 14 16 17 19 21 22 23
12 13 14 12 11 10 11 11 11 11 10 11 11 11 11 11 12 12 13 13 13 13 13 14 14 14 16 18 20 20 19 19 19
14 15 14 14 13 12 12 13 13 13 13 14 15 15 15 15 15 15 15 16 16 16 17 17 17 18 18 19 21 23 24 23 21
15 17 17 16 15 14 15 16 15 16 16 16 16 17 17 17 17 18 19 19 19 19 20 20 20 21 21 22 23 24 26 25 24
17 20 21 19 18 18 18 18 18 18 18 20 20 20 20 19 20 21 20 21 22 22 22 22 23 24 24 24 24 25 25 24 24
18 21 22 21 21 21 20 20 20 20 20 23 25 25 23 22 22 22 22 23 23 23 23 24 25 26 26 26 25 24 23 22 20
20 21 23 23 24 23 21 20 22 22 19 23 26 30 29 25 24 24 24 23 23 23 24 24 24 24 25 26 23 22 19 21 19
22 23 24 23 23 24 23 22 23 25 23 20 23 29 31 30 25 22 20 21 20 22 22 22 22 22 23 22 24 21 19 18 19
20 21 23 24 25 25 25 23 23 24 26 25 24 25 28 34 37 27 23 21 23 22 21 20 19 19 21 20 21 21 19 20 20
23 24 25 26 27 26 26 26 25 24 27 27 28 28 28 29 32 38 32 28 26 22 20 19 20 20 20 21 21 20 23 21 21
Wind_Direction
31 37 35 30 27 21 22 25 30 32 21 24 24 22 32 32 41 50 44 41 47 45 44 39 32 30 28 30 24 27 39 27 28
33 29 30 35 29 25 22 23 25 22 21 18 17 16 20 22 32 35 43 46 43 42 41 39 32 25 21 17 23 23 18 15 13
25 31 38 38 32 29 23 22 22 22 22 19 14 13 10 10 20 30 35 40 40 39 41 36 29 23 18 10 9 7 6 4 3
18 27 35 41 45 46 46 39 39 38 34 29 26 19 16 12 17 30 33 35 33 34 37 32 22 16 12 6 360 349 354 355 358
27 22 36 43 47 47 44 48 53 58 52 43 34 34 31 32 26 25 36 32 32 30 29 29 16 6 359 359 358 351 350 350 349
59 40 42 47 52 52 48 44 43 46 53 52 46 45 50 49 38 30 34 31 33 31 29 27 15 354 347 350 346 345 346 343 341
48 31 33 44 52 57 66 71 56 42 42 49 49 56 82 54 32 26 31 26 25 24 22 18 14 352 340 336 335 333 334 336 335
2 5 15 27 37 44 58 62 75 84 82 52 58 69 115 43 20 17 23 9 4 1 358 358 359 353 335 327 325 326 324 326 326
351 2 6 15 20 25 32 36 50 57 41 33 358 297 290 336 342 347 301 316 322 328 332 332 336 338 334 324 319 318 318 320 322
333 337 342 344 351 353 359 356 353 349 345 313 288 288 294 290 302 300 289 288 291 285 293 306 314 318 322 323 318 315 315 316 317
321 322 323 328 332 336 339 337 332 327 326 312 296 286 284 285 286 290 286 275 276 282 282 287 294 299 306 311 314 315 315 314 314
311 312 315 315 318 318 323 323 324 323 318 311 306 303 292 285 279 277 282 286 277 278 282 283 286 288 294 300 304 307 308 308 308
300 304 304 308 308 309 311 312 313 311 310 312 311 308 303 297 290 285 281 281 284 281 277 279 284 285 287 293 298 301 303 304 304
293 297 300 301 303 302 305 307 308 310 309 308 307 305 300 296 295 289 289 287 283 283 282 279 282 285 288 291 295 298 300 300 301
291 294 297 297 298 299 300 302 305 307 307 310 311 307 303 298 297 296 295 291 288 287 285 286 284 282 286 289 290 295 295 296 299
289 293 295 295 294 295 296 299 300 302 307 311 311 311 309 305 300 298 296 293 292 292 288 288 288 290 289 290 290 293 295 296 296
292 292 293 293 294 294 292 293 299 301 302 306 313 315 316 307 302 298 294 292 295 292 293 294 290 289 291 294 292 292 292 297 297
298 296 295 294 292 293 292 291 291 298 302 296 307 320 318 324 320 310 303 301 298 300 299 297 293 291 293 292 293 292 291 293 297
294 294 293 292 293 290 292 292 288 290 295 302 294 293 307 316 319 320 315 313 309 304 301 298 293 291 290 288 290 289 287 291 293
299 298 297 294 293 290 290 291 288 286 290 293 300 299 298 300 302 311 313 310 309 304 299 295 292 289 285 285 288 284 288 290 293